EW5449 Weather Reports


time (UTC)temp
F
wind
direction
speed
knots
gust
knots
rain 1hr
in
rain 24hr
in
rain mn
in
humidity
%
barometer
mb
20260509224509 72 296 0.0 1.7 0.00 0.00 0.00 48 1007.2
20260509223011 72 340 0.0 1.7 0.00 0.00 0.00 49 1007.3
20260509221507 71 338 0.0 1.7 0.00 0.00 0.00 50 1007.3
20260509220010 71 341 0.0 1.7 0.00 0.00 0.00 50 1007.4
20260509214506 71 336 0.0 2.6 0.00 0.00 0.00 47 1007.2
20260509213013 71 348 0.0 1.7 0.00 0.00 0.00 48 1007.1
20260509211507 71 355 0.0 0.9 0.00 0.00 0.00 48 1007.1
20260509210005 72 351 0.0 1.7 0.00 0.00 0.00 48 1007.1
20260509204505 72 355 0.0 1.7 0.00 0.00 0.00 47 1007.0
20260509203005 72 103 0.0 1.7 0.00 0.00 0.00 47 1006.9
20260509201503 72 107 0.0 1.7 0.00 0.00 0.00 46 1007.0
20260509200001 72 101 0.0 2.6 0.00 0.00 0.00 45 1007.0
20260509194600 72 341 0.0 2.6 0.00 0.00 0.00 46 1007.2
20260509193108 74 115 0.0 3.5 0.00 0.00 0.00 45 1007.5
20260509191607 74 119 0.0 2.6 0.00 0.00 0.00 44 1007.4
20260509190058 73 343 0.0 1.7 0.00 0.00 0.00 46 1007.5
20260509184559 72 14 0.9 3.5 0.00 0.00 0.00 45 1007.6
20260509183056 72 182 0.0 1.7 0.00 0.00 0.00 45 1008.1
20260509181546 71 134 0.0 1.7 0.00 0.00 0.00 47 1008.3
20260509180043 70 335 0.0 3.5 0.00 0.00 0.00 48 1008.3
20260509174558 68 343 0.0 4.3 0.00 0.00 0.00 48 1008.7
20260509173047 68 346 0.9 3.5 0.00 0.00 0.00 49 1008.9
20260509171538 67 333 0.9 4.3 0.00 0.00 0.00 49 1009.1
20260509170038 67 338 0.0 4.3 0.00 0.00 0.00 49 1009.4
20260509164537 68 348 0.9 4.3 0.00 0.00 0.00 47 1009.5
20260509163041 69 304 0.0 3.5 0.00 0.00 0.00 46 1009.4
20260509161536 69 338 0.9 3.5 0.00 0.00 0.00 45 1009.3
20260509160036 68 334 0.9 4.3 0.00 0.00 0.00 45 1009.0
20260509154532 69 341 0.9 4.3 0.00 0.00 0.00 46 1009.1
20260509153042 67 329 0.0 5.2 0.00 0.00 0.00 48 1009.3
20260509151529 67 58 0.0 2.6 0.00 0.00 0.00 46 1009.4
20260509150028 67 325 0.9 3.5 0.00 0.00 0.00 46 1009.6
20260509144529 66 345 0.0 4.3 0.00 0.00 0.00 49 1009.4
20260509143020 65 333 0.0 1.7 0.00 0.00 0.00 47 1009.8
20260509141517 64 190 0.0 1.7 0.00 0.00 0.00 47 1010.0
20260509140015 63 172 0.0 1.7 0.00 0.00 0.00 51 1010.1
20260509134510 62 257 0.0 1.7 0.00 0.00 0.00 52 1010.1
20260509133007 61 257 0.0 1.7 0.00 0.00 0.00 55 1009.9
20260509131509 60 332 0.0 0.0 0.00 0.00 0.00 56 1009.9
20260509130011 59 332 0.0 1.7 0.00 0.00 0.00 58 1010.1
20260509124503 59 332 0.0 1.7 0.00 0.00 0.00 54 1010.0
20260509123004 58 332 0.0 1.7 0.00 0.00 0.00 54 1010.1
20260509121508 58 331 0.0 1.7 0.00 0.00 0.00 55 1010.1
20260509120003 57 312 0.0 1.7 0.00 0.00 0.00 56 1010.0
20260509114503 57 310 0.0 1.7 0.00 0.00 0.00 56 1010.1
20260509113002 57 194 0.0 0.9 0.00 0.00 0.00 55 1009.9
20260509111501 57 194 0.0 1.7 0.00 0.00 0.00 55 1009.7
20260509110001 57 202 0.0 1.7 0.00 0.00 0.00 53 1009.7
20260509104600 57 198 0.0 1.7 0.00 0.00 0.00 54 1009.6
20260509103104 57 198 0.0 1.7 0.00 0.00 0.00 54 1009.6
20260509101618 58 198 0.0 1.7 0.00 0.00 0.00 53 1009.6
20260509100059 58 198 0.0 0.0 0.00 0.00 0.00 53 1009.6
20260509094606 58 198 0.0 1.7 0.00 0.00 0.00 52 1009.6
20260509093057 59 198 0.0 1.7 0.00 0.00 0.00 51 1009.6
20260509091606 59 193 0.0 1.7 0.00 0.00 0.00 48 1009.6
20260509084559 59 177 0.0 1.7 0.00 0.00 0.00 48 1009.7
20260509083059 59 183 0.0 1.7 0.00 0.00 0.00 48 1009.7
20260509081551 58 134 0.0 1.7 0.00 0.00 0.00 49 1009.8
20260509080053 59 156 0.0 1.7 0.00 0.00 0.00 49 1009.8
20260509074552 59 159 0.0 0.0 0.00 0.00 0.00 51 1010.0
20260509073050 60 159 0.0 0.0 0.00 0.00 0.00 50 1010.0
20260509071546 60 159 0.0 1.7 0.00 0.00 0.00 45 1010.0
20260509070043 59 184 0.0 1.7 0.00 0.00 0.00 46 1010.1
20260509064539 58 158 0.0 1.7 0.00 0.00 0.00 50 1010.3
20260509063038 57 142 0.0 1.7 0.00 0.00 0.00 51 1010.4
20260509061537 57 142 0.0 0.0 0.00 0.00 0.00 53 1010.4
20260509060040 57 142 0.0 0.0 0.00 0.00 0.00 55 1010.6
20260509054534 57 142 0.0 1.7 0.00 0.00 0.00 54 1010.6
20260509053049 57 142 0.0 0.0 0.00 0.00 0.00 55 1010.6
20260509051540 57 142 0.0 1.7 0.00 0.00 0.00 54 1010.7
20260509050030 58 142 0.0 1.7 0.00 0.00 0.00 54 1010.6
20260509044527 58 118 0.0 1.7 0.00 0.00 0.00 53 1010.6
20260509043030 58 169 0.0 1.7 0.00 0.00 0.00 52 1010.7
20260509041525 59 169 0.0 1.7 0.00 0.00 0.00 52 1010.6
20260509040029 58 172 0.0 1.7 0.00 0.00 0.00 52 1010.6
20260509034521 57 142 0.0 2.6 0.00 0.00 0.00 53 1010.8
20260509033021 57 153 0.0 0.0 0.00 0.00 0.00 54 1010.8
20260509031527 58 153 0.0 1.7 0.00 0.00 0.00 55 1010.7
20260509030037 58 153 0.0 0.0 0.00 0.00 0.00 60 1010.9
20260509024520 59 153 0.0 0.0 0.00 0.00 0.00 59 1011.0
20260509023022 60 153 0.0 1.7 0.00 0.00 0.00 48 1011.0
20260509021530 60 153 0.0 0.9 0.00 0.00 0.00 49 1010.9
20260509020018 61 153 0.0 0.9 0.00 0.00 0.00 51 1010.9
20260509014517 62 153 0.0 0.0 0.00 0.00 0.00 48 1011.0
20260509013017 63 153 0.0 0.0 0.00 0.00 0.00 46 1010.9
20260509011516 64 153 0.0 0.0 0.00 0.00 0.00 42 1010.8
20260509010017 65 155 0.0 1.7 0.00 0.00 0.00 41 1010.7
20260509004523 65 124 0.0 1.7 0.00 0.00 0.00 40 1010.6
20260509003015 66 148 0.0 1.7 0.00 0.00 0.00 38 1010.5
20260509001515 67 126 0.0 1.7 0.00 0.00 0.00 37 1010.4
20260509000014 68 127 0.0 1.7 0.00 0.00 0.00 35 1010.3
20260508234515 69 128 0.0 1.7 0.00 0.00 0.00 33 1010.1
20260508233014 70 122 0.0 1.7 0.00 0.00 0.00 32 1010.1
20260508231512 71 126 0.0 1.7 0.00 0.00 0.00 32 1010.1
20260508230011 71 190 0.0 1.7 0.00 0.00 0.00 30 1010.0